[[{"header":{"parameterUnit":"m.s-1","parameterCategory":1,"la1":30.2991,"la2":30.254,"lo1":-89.0895,"lo2":-89.0444,"dy":0.0017,"dx":0.0017,"nx":28,"ny":28,"refTime":"2023-08-15T21:00:00:Z","depth":0,"parameterNumber":2,"parameterNumberName":"U-component_of_WINDS"},"data":[0,0,0,0,0,0,0,0,0,0,0,0,0,0,0,0,0,0,0,0,0,0,0,0,0,0,0,0,0,0,0,0,0,0,0,0,0,0,0,0,0,0,0,0,0,0,0,0,0,0,0,0,0,0,0,0,0,0,5.3936,5.3936,0,5.3939,5.3939,5.3939,5.3849,5.3846,5.3844,5.3842,5.3841,5.3844,5.3846,0,0,0,0,0,0,0,0,0,0,0,0,0,5.3853,5.3855,5.3936,5.3936,5.3936,5.3939,5.3939,5.3939,5.3849,5.3846,5.3843,5.3841,5.3841,5.3843,5.3846,0,0,0,0,0,0,0,0,0,0,0,0,0,5.3876,5.3856,5.3936,5.3892,5.3888,5.3939,5.3939,5.3939,5.385,5.3846,5.3843,5.3839,5.384,5.3843,5.3846,5.3938,0,0,5.3856,5.3858,0,0,0,0,0,0,0,0,5.3874,5.3879,5.3898,5.3895,5.389,5.389,5.3909,5.3938,5.3851,5.3864,5.3842,5.3837,5.386,5.3862,5.387,5.3938,5.3938,5.3857,5.3859,5.386,5.3861,0,0,0,0,0,0,0,5.3873,5.3878,5.3937,5.3898,5.3894,5.3872,5.3871,5.3914,5.3882,5.3863,5.3856,5.3858,5.3857,5.3867,5.3869,5.3938,5.3857,5.386,5.3862,5.3863,5.4084,5.4088,0,0,0,0,0,0,5.3878,5.3877,5.3937,5.3937,5.3874,5.3876,5.3875,5.3893,5.3881,5.3876,5.3861,5.3854,5.3863,5.3865,5.3869,5.3974,5.386,5.3863,5.3865,5.408,5.4085,5.4089,0,0,0,0,0,0,5.3876,5.3884,5.3936,5.3905,5.391,5.3881,5.3903,5.3895,5.3904,5.388,5.3874,5.3876,5.386,5.3864,5.3922,5.3973,5.3865,5.3868,5.4075,5.4081,5.4087,5.4188,0,0,0,0,0,0,5.3874,5.3884,5.3918,5.3907,5.3912,5.399,5.3906,5.3898,5.3911,5.3901,5.3893,5.3888,5.3858,5.3918,5.3926,5.3976,5.387,5.4071,5.4078,5.4085,5.4179,5.4196,5.421,0,0,0,0,0,5.3872,5.3945,5.392,5.3928,5.3955,5.3993,5.3996,5.396,5.3916,5.3949,5.3935,5.3888,5.3968,5.3924,5.3932,5.3984,5.4067,5.4076,5.4084,5.4172,5.4193,5.421,0,0,0,0,0,0,5.396,5.3942,5.3914,5.3987,5.3993,5.3978,5.4018,5.3983,5.4,5.399,5.3945,5.3944,5.4009,5.4004,5.3955,5.4074,5.401,5.402,5.4074,5.4093,5.4108,5.4105,5.3873,0,0,0,0,0,5.3989,5.4022,5.4005,5.407,5.4075,5.4048,5.4063,5.4036,5.4039,5.404,5.4029,5.4033,5.4059,5.4077,5.4099,5.4181,5.4177,5.4221,5.4237,5.425,5.4257,5.4299,5.4318,5.4118,5.4117,5.4117,0,0,5.4046,5.4041,5.4064,5.4088,5.4089,5.4124,5.4049,5.4089,5.4114,5.4045,5.4098,5.4092,5.4094,5.4165,5.4195,5.4161,5.4313,5.4261,5.4271,5.4272,5.431,5.4329,5.4346,5.4123,5.4122,5.4121,0,0,5.4168,5.4169,5.4223,5.4227,5.4231,5.4213,5.4227,5.4219,5.4212,5.4267,5.4216,5.4247,5.4293,5.4296,5.4304,5.4435,5.4392,5.4444,5.4522,5.4564,5.4579,5.4593,5.4637,5.4653,5.4453,5.4454,5.4454,0,5.4238,5.4289,5.4255,5.4299,5.4311,5.4255,5.431,5.4315,5.4326,5.4335,5.43,5.4358,5.4355,5.4425,5.4457,5.4467,5.448,5.4441,5.458,5.4594,5.4606,5.4647,5.4664,5.446,5.4459,5.4458,5.4458,0,5.4374,5.4411,5.4455,5.4468,5.4487,5.4536,5.451,5.4532,5.4506,5.4493,5.4549,5.4546,5.4567,5.4583,5.4557,5.465,5.4629,5.4588,5.4521,5.4631,5.4669,5.4685,5.4468,5.4466,5.4464,5.4463,0,0,5.4543,5.4543,5.4559,5.4565,5.4569,5.4596,5.4645,5.4667,5.4686,5.4699,5.4736,5.478,5.4742,5.4752,5.4727,5.4764,5.4866,5.4718,5.4718,5.4742,5.4966,5.4992,5.5011,5.4841,5.4844,5.4846,5.4964,0,5.4658,5.4739,5.4714,5.4796,5.4829,5.4781,5.4823,5.4829,5.482,5.4847,5.4836,5.4866,5.4817,5.4822,5.4858,5.4846,5.4909,5.4838,5.4872,5.4874,5.4867,5.5031,5.5059,5.517,5.4979,5.4982,5.4983,0,5.4801,5.4821,5.4907,5.4907,5.492,5.4958,5.4978,5.5006,5.5014,5.5004,5.5018,5.4986,5.5033,5.4973,5.5036,5.4989,5.5003,5.5,5.5004,5.5,5.4931,5.5028,5.5205,5.522,5.5007,5.5005,5.5003,0,5.4911,5.496,5.5018,5.5026,5.5028,5.5056,5.5059,5.5064,5.508,5.5099,5.5108,5.5132,5.5144,5.5163,5.5139,5.5097,5.5205,5.5143,5.5196,5.5197,5.5215,5.5213,5.5392,5.5234,5.5234,5.5234,5.5233,0,5.5039,5.5092,5.5067,5.5102,5.5162,5.5134,5.5193,5.519,5.5196,5.5229,5.5191,5.5222,5.5191,5.5221,5.5203,5.5257,5.5264,5.5256,5.5249,5.5256,5.5256,5.5259,5.5249,5.5238,5.5237,5.5236,5.5236,0,5.5168,5.5154,5.5213,5.5214,5.5216,5.5259,5.5259,5.5291,5.5282,5.5325,5.5333,5.5318,5.5351,5.5331,5.5364,5.5352,5.5421,5.5407,5.5418,5.5412,5.5466,5.5459,5.5648,5.567,5.5503,5.5505,5.5506,0,5.5247,5.5287,5.5294,5.5315,5.5321,5.5354,5.5372,5.5349,5.5368,5.5383,5.5414,5.5444,5.5466,5.5521,5.5512,5.5537,5.552,5.5585,5.5523,5.5529,5.5516,5.5511,5.5514,5.5595,5.5597,5.5598,5.56,0,5.5388,5.5381,5.5408,5.5435,5.5458,5.5478,5.5494,5.5513,5.549,5.5515,5.5549,5.5567,5.5603,5.5632,5.5655,5.5656,5.5624,5.5621,5.5634,5.5637,5.5641,5.5636,5.5447,5.5615,5.5613,5.5612,5.5611,5.5611,5.5491,5.5525,5.5536,5.5569,5.558,5.5597,5.5628,5.5625,5.5654,5.5681,5.5667,5.5707,5.5717,5.5745,5.5751,5.5782,5.5755,5.5775,5.5779,5.5782,5.5788,5.5642,5.5786,5.5786,5.5786,5.5785,5.5785,0,5.5626,5.5633,5.5664,5.5689,5.5716,5.5689,5.5707,5.573,5.5766,5.5779,5.5804,5.5844,5.5874,5.5871,5.5898,5.5923,5.5909,5.593,5.5925,5.5926,5.5812,5.5796,5.5942,5.5942,5.5941,5.5941,5.5941,5.5941,5.5699,5.5755,5.575,5.5812,5.5818,5.5858,5.5871,5.5887,5.5897,5.5945,5.597,5.597,5.5976,5.6004,5.6031,5.6029,5.6039,5.6065,5.6057,5.595,5.5934,5.5919,5.5903,5.6069,5.6069,5.6168,5.6169,5.6169]},{"header":{"parameterUnit":"m.s-1","parameterCategory":1,"la1":30.2991,"la2":30.254,"lo1":-89.0895,"lo2":-89.0444,"dy":0.0017,"dx":0.0017,"nx":28,"ny":28,"refTime":"2023-08-15T21:00:00:Z","depth":0,"parameterNumber":3,"parameterNumberName":"V-component_of_WINDS"},"data":[0,0,0,0,0,0,0,0,0,0,0,0,0,0,0,0,0,0,0,0,0,0,0,0,0,0,0,0,0,0,0,0,0,0,0,0,0,0,0,0,0,0,0,0,0,0,0,0,0,0,0,0,0,0,0,0,0,0,0.5248,0.5256,0,0.5992,0.6001,0.6009,0.6179,0.6174,0.6169,0.6164,0.6927,0.6952,0.6977,0,0,0,0,0,0,0,0,0,0,0,0,0,0.3978,0.4001,0.5247,0.5257,0.5266,0.5991,0.6001,0.6012,0.618,0.6174,0.6167,0.6161,0.6919,0.6949,0.6979,0,0,0,0,0,0,0,0,0,0,0,0,0,0.4607,0.4008,0.5246,0.5437,0.5462,0.5989,0.6002,0.6014,0.6181,0.6173,0.6166,0.6158,0.6909,0.6946,0.6983,0.7372,0,0,0.7098,0.7115,0,0,0,0,0,0,0,0,0.4571,0.4653,0.54,0.5425,0.5454,0.5985,0.5834,0.647,0.6183,0.5908,0.6163,0.6154,0.662,0.6681,0.6838,0.7408,0.7441,0.7102,0.7125,0.7141,0.7152,0,0,0,0,0,0,0,0.4527,0.4622,0.5542,0.5411,0.5444,0.5489,0.5569,0.5955,0.6299,0.5932,0.5946,0.6031,0.6633,0.6801,0.6857,0.7452,0.7101,0.7134,0.7158,0.7172,0.8393,0.8403,0,0,0,0,0,0,0.4449,0.4585,0.5519,0.5565,0.4984,0.5518,0.5608,0.5822,0.6295,0.636,0.6037,0.6036,0.674,0.6813,0.6885,0.7384,0.7141,0.7176,0.7198,0.8384,0.8396,0.8406,0,0,0,0,0,0,0.4421,0.4531,0.5489,0.5079,0.5204,0.5548,0.5787,0.5841,0.6009,0.6375,0.6437,0.6146,0.6737,0.6831,0.7253,0.7412,0.7193,0.7227,0.8372,0.8387,0.8401,0.8377,0,0,0,0,0,0,0.4384,0.452,0.467,0.5081,0.5225,0.5843,0.5797,0.5861,0.6074,0.608,0.6493,0.6554,0.6738,0.7196,0.7291,0.746,0.7257,0.836,0.8379,0.8396,0.8365,0.8389,0.8409,0,0,0,0,0,0.4338,0.463,0.4676,0.4788,0.542,0.5851,0.5934,0.614,0.6085,0.6242,0.6478,0.6541,0.7376,0.7237,0.7346,0.7529,0.8351,0.8373,0.8395,0.8355,0.8384,0.8409,0,0,0,0,0,0,0.4227,0.4688,0.4744,0.5177,0.5474,0.5879,0.6082,0.6162,0.648,0.6473,0.6714,0.6806,0.7216,0.7413,0.7249,0.7937,0.7862,0.7907,0.7795,0.7826,0.7847,0.7796,0.7288,0,0,0,0,0,0.4253,0.4564,0.4949,0.5294,0.5441,0.5735,0.593,0.6064,0.6381,0.6508,0.6775,0.7081,0.7415,0.7629,0.7954,0.8391,0.849,0.8571,0.8592,0.8608,0.8648,0.8907,0.8951,0.8478,0.8478,0.8478,0,0,0.431,0.46,0.4781,0.528,0.5526,0.5848,0.584,0.6176,0.642,0.6559,0.6979,0.7183,0.7542,0.7976,0.8181,0.8154,0.8799,0.8637,0.8647,0.8679,0.8934,0.8978,0.9018,0.8493,0.8491,0.8488,0,0,0.4581,0.4826,0.5148,0.5396,0.5769,0.5964,0.604,0.6436,0.658,0.7003,0.7118,0.7409,0.7974,0.823,0.8433,0.8807,0.8882,0.8905,0.9024,0.9273,0.9311,0.9345,0.9491,0.9539,0.894,0.894,0.894,0,0.4606,0.5094,0.5302,0.564,0.5861,0.6001,0.6334,0.6563,0.7023,0.7174,0.7134,0.7856,0.8105,0.8608,0.87,0.8855,0.8957,0.8864,0.9287,0.9324,0.936,0.9502,0.9555,0.8942,0.8942,0.8942,0.8941,0,0.5112,0.5449,0.5663,0.611,0.6353,0.6683,0.6947,0.7168,0.728,0.748,0.7914,0.8219,0.8616,0.8742,0.8851,0.9264,0.9237,0.9238,0.9171,0.9403,0.9542,0.9597,0.8944,0.8943,0.8943,0.8943,0,0,0.5339,0.5899,0.5976,0.6185,0.6609,0.6876,0.7214,0.7604,0.7795,0.8106,0.8405,0.8882,0.8891,0.9121,0.9261,0.9478,0.9771,0.9457,0.9469,0.9516,1.0258,1.0263,1.0321,0.9818,0.9829,0.9838,1.0232,0,0.5672,0.6287,0.6488,0.7001,0.7322,0.7462,0.776,0.8054,0.825,0.8552,0.8767,0.9109,0.9086,0.9229,0.9448,0.9688,0.9925,0.9661,1.0107,1.012,1.0026,1.0392,1.0397,1.0754,1.0286,1.0295,1.0302,0,0.6145,0.6471,0.7016,0.7411,0.7553,0.7817,0.8196,0.8478,0.8818,0.8946,0.9206,0.9331,0.9698,0.96,1.0114,0.993,1.0123,1.0268,1.0287,1.0347,1.0233,1.0474,1.0872,1.093,1.0387,1.038,1.0374,0,0.6273,0.6845,0.7251,0.7422,0.7888,0.8073,0.8276,0.8607,0.8831,0.916,0.931,0.9674,0.9878,1.016,1.0383,1.0288,1.0881,1.0798,1.1006,1.1001,1.1134,1.1125,1.1582,1.1236,1.1235,1.1234,1.1232,0,0.6632,0.6964,0.7316,0.7566,0.7945,0.8172,0.8541,0.8751,0.9046,0.9343,0.9481,0.9757,1.0028,1.0341,1.0516,1.0923,1.1009,1.1129,1.1175,1.1125,1.1112,1.1264,1.125,1.1248,1.1245,1.1242,1.124,0,0.6843,0.709,0.7544,0.7948,0.8058,0.8321,0.867,0.8921,0.9121,0.9496,0.9597,0.9914,1.0291,1.0538,1.1015,1.1134,1.1582,1.1613,1.1469,1.1494,1.1692,1.1675,1.2274,1.2369,1.1945,1.1949,1.1952,0,0.7062,0.7323,0.7758,0.7968,0.8173,0.8506,0.8738,0.8972,0.9207,0.9618,0.9821,1.0206,1.0529,1.1125,1.14,1.1769,1.1819,1.2003,1.1876,1.1822,1.1839,1.1827,1.1859,1.2027,1.2031,1.2033,1.2036,0,0.7431,0.7542,0.787,0.8245,0.8517,0.8822,0.9127,0.9291,0.9578,0.9837,1.0225,1.0475,1.0967,1.1353,1.1748,1.196,1.2052,1.2072,1.2143,1.2101,1.2013,1.2078,1.154,1.206,1.2058,1.2056,1.2055,1.2054,0.7664,0.7906,0.8253,0.8617,0.8872,0.9156,0.9415,0.9651,0.9978,1.04,1.0516,1.0924,1.1264,1.1806,1.2024,1.235,1.233,1.2427,1.2455,1.2479,1.2489,1.1949,1.242,1.242,1.242,1.2419,1.2419,0,0.8051,0.8282,0.8614,0.9041,0.9328,0.9384,0.9727,0.9965,1.0323,1.0632,1.0948,1.1399,1.1775,1.2079,1.2467,1.267,1.2722,1.2765,1.276,1.281,1.2477,1.2384,1.2718,1.2718,1.2718,1.2718,1.2717,1.2717,0.8288,0.8706,0.8859,0.9407,0.9636,1.0039,1.0232,1.0497,1.0747,1.1245,1.1559,1.1754,1.2065,1.2478,1.2827,1.2907,1.305,1.3087,1.3177,1.2864,1.2831,1.28,1.2715,1.3112,1.3113,1.3485,1.3489,1.3491]}]]